DF2AP-13 Weather Reports


time (UTC)temp
C
wind
direction
speed
KPH
gust
KPH
rain 1hr
cm
rain 24hr
cm
rain mn
cm
humidity
%
barometer
mb
20260506165305 15 0.0 0.0 0.00 0.00 0.00 87 1006.3
20260506164303 15 0.0 0.0 0.00 0.00 0.00 89 1006.1
20260506163307 15 0.0 0.0 0.00 0.00 0.00 86 1006.2
20260506162307 15 0.0 0.0 0.00 0.00 0.00 77 1005.9
20260506161304 17 0.0 0.0 0.00 0.00 0.00 71 1005.7
20260506160302 18 0.0 0.0 0.00 0.00 0.00 57 1005.3
20260506155305 19 0.0 0.0 0.00 0.00 0.00 56 1005.1
20260506154302 19 0.0 0.0 0.00 0.00 0.00 52 1005.1
20260506153302 20 0.0 0.0 0.00 0.00 0.00 52 1005.0
20260506152305 20 0.0 0.0 0.00 0.00 0.00 50 1005.0
20260506151307 20 0.0 0.0 0.00 0.00 0.00 53 1005.1
20260506150304 19 0.0 0.0 0.00 0.00 0.00 54 1005.4
20260506145305 19 0.0 0.0 0.00 0.00 0.00 57 1005.4
20260506144302 19 0.0 0.0 0.00 0.00 0.00 56 1005.5
20260506143302 20 0.0 0.0 0.00 0.00 0.00 55 1005.3
20260506142305 20 0.0 0.0 0.00 0.00 0.00 51 1005.3
20260506141306 20 0.0 0.0 0.00 0.00 0.00 54 1005.4
20260506140304 20 0.0 0.0 0.00 0.00 0.00 53 1005.5
20260506135305 20 0.0 0.0 0.00 0.00 0.00 53 1005.3
20260506134302 20 0.0 0.0 0.00 0.00 0.00 55 1005.5
20260506133302 19 0.0 0.0 0.00 0.00 0.00 57 1005.6
20260506132305 20 0.0 0.0 0.00 0.00 0.00 55 1005.6
20260506131302 18 0.0 0.0 0.00 0.00 0.00 59 1005.7
20260506130302 19 0.0 0.0 0.00 0.00 0.00 58 1005.8
20260506125305 20 0.0 0.0 0.00 0.00 0.00 56 1005.6
20260506124307 20 0.0 0.0 0.00 0.00 0.00 53 1005.7
20260506123302 20 0.0 0.0 0.00 0.00 0.00 54 1005.6
20260506122305 20 0.0 0.0 0.00 0.00 0.00 53 1005.8
20260506121302 19 0.0 0.0 0.00 0.00 0.00 54 1005.8
20260506120303 18 0.0 0.0 0.00 0.00 0.00 58 1005.8
20260506115306 18 0.0 0.0 0.00 0.00 0.00 61 1006.0
20260506114303 18 0.0 0.0 0.00 0.00 0.00 57 1005.9
20260506113302 18 0.0 0.0 0.00 0.00 0.00 58 1005.9
20260506112305 18 0.0 0.0 0.00 0.00 0.00 60 1005.9
20260506111302 18 0.0 0.0 0.00 0.00 0.00 60 1006.0
20260506110302 18 0.0 0.0 0.00 0.00 0.00 59 1006.0
20260506105307 18 0.0 0.0 0.00 0.00 0.00 61 1006.2
20260506104312 18 0.0 0.0 0.00 0.00 0.00 59 1006.2
20260506103302 17 0.0 0.0 0.00 0.00 0.00 67 1006.5
20260506102305 17 0.0 0.0 0.00 0.00 0.00 67 1006.7
20260506101302 17 0.0 0.0 0.00 0.00 0.00 68 1006.6
20260506100302 17 0.0 0.0 0.00 0.00 0.00 65 1006.5
20260506095313 17 0.0 0.0 0.00 0.00 0.00 66 1006.4
20260506094302 16 0.0 0.0 0.00 0.00 0.00 68 1006.4
20260506093302 16 0.0 0.0 0.00 0.00 0.00 68 1006.3
20260506092305 17 0.0 0.0 0.00 0.00 0.00 71 1006.3
20260506091302 17 0.0 0.0 0.00 0.00 0.00 70 1006.2
20260506090302 16 0.0 0.0 0.00 0.00 0.00 71 1006.2
20260506085305 16 0.0 0.0 0.00 0.00 0.00 76 1006.1
20260506084302 16 0.0 0.0 0.00 0.00 0.00 75 1006.1
20260506083312 16 0.0 0.0 0.00 0.00 0.00 74 1006.0
20260506082304 16 0.0 0.0 0.00 0.00 0.00 78 1006.0
20260506081302 15 0.0 0.0 0.00 0.00 0.00 79 1006.1
20260506080302 15 0.0 0.0 0.00 0.00 0.00 77 1006.1
20260506073302 15 0.0 0.0 0.00 0.00 0.00 82 1006.2
20260506072305 15 0.0 0.0 0.00 0.00 0.00 92 1006.3
20260506071302 14 0.0 0.0 0.00 0.00 0.00 98 1006.2
20260506070302 14 0.0 0.0 0.00 0.00 0.00 10 1006.3
20260506062305 13 0.0 0.0 0.00 0.00 0.00 10 1006.3
20260506061302 13 0.0 0.0 0.00 0.00 0.00 10 1006.2
20260506060302 13 0.0 0.0 0.00 0.00 0.00 10 1006.5
20260506051302 12 0.0 0.0 0.00 0.00 0.00 10 1006.7
20260506050302 12 0.0 0.0 0.00 0.00 0.00 10 1006.7
20260506044302 12 0.0 0.0 0.00 0.00 0.00 10 1006.6
20260506043302 12 0.0 0.0 0.00 0.00 0.00 10 1006.4
20260506042305 12 0.0 0.0 0.00 0.00 0.00 10 1006.4
20260506041302 12 0.0 0.0 0.00 0.00 0.00 10 1006.5
20260506040302 12 0.0 0.0 0.00 0.00 0.00 10 1006.4
20260506035305 12 0.0 0.0 0.00 0.00 0.00 10 1006.4
20260506034302 12 0.0 0.0 0.00 0.00 0.00 10 1006.4
20260506033302 12 0.0 0.0 0.00 0.00 0.00 10 1006.5
20260506032305 12 0.0 0.0 0.00 0.00 0.00 10 1006.6
20260506031302 12 0.0 0.0 0.00 0.00 0.00 10 1006.7
20260506030302 12 0.0 0.0 0.00 0.00 0.00 10 1006.7
20260506025305 12 0.0 0.0 0.00 0.00 0.00 10 1006.8
20260506024302 12 0.0 0.0 0.00 0.00 0.00 10 1006.9
20260506023302 12 0.0 0.0 0.00 0.00 0.00 10 1006.9
20260506022305 12 0.0 0.0 0.00 0.00 0.00 10 1007.0
20260506021302 12 0.0 0.0 0.00 0.00 0.00 10 1007.0
20260506020302 12 0.0 0.0 0.00 0.00 0.00 10 1007.0
20260506015305 12 0.0 0.0 0.00 0.00 0.00 10 1007.1
20260506014302 12 0.0 0.0 0.00 0.00 0.00 10 1007.2
20260506013307 12 0.0 0.0 0.00 0.00 0.00 10 1007.2
20260506012307 12 0.0 0.0 0.00 0.00 0.00 10 1007.3
20260506011302 12 0.0 0.0 0.00 0.00 0.00 10 1007.2
20260506010307 12 0.0 0.0 0.00 0.00 0.00 10 1007.2
20260506005305 12 0.0 0.0 0.00 0.00 0.00 10 1007.3
20260506004302 12 0.0 0.0 0.00 0.00 0.00 10 1007.1
20260506003302 12 0.0 0.0 0.00 0.00 0.00 10 1007.1
20260506002305 12 0.0 0.0 0.00 0.00 0.00 10 1007.2
20260506001302 12 0.0 0.0 0.00 0.00 0.00 10 1007.4
20260506000302 12 0.0 0.0 0.00 0.00 0.00 10 1007.4
20260505235304 12 0.0 0.0 0.00 0.00 0.00 10 1007.5
20260505234302 12 0.0 0.0 0.00 0.00 0.00 10 1007.5
20260505233302 12 0.0 0.0 0.00 0.00 0.00 10 1007.7
20260505232305 12 0.0 0.0 0.00 0.00 0.00 10 1007.6
20260505231302 12 0.0 0.0 0.00 0.00 0.00 10 1007.6
20260505230302 12 0.0 0.0 0.00 0.00 0.00 10 1007.6
20260505225307 12 0.0 0.0 0.00 0.00 0.00 10 1007.8
20260505224302 12 0.0 0.0 0.00 0.00 0.00 10 1007.8
20260505223302 12 0.0 0.0 0.00 0.00 0.00 10 1007.8
20260505222305 12 0.0 0.0 0.00 0.00 0.00 10 1007.9
20260505221302 12 0.0 0.0 0.00 0.00 0.00 10 1008.1
20260505220302 13 0.0 0.0 0.00 0.00 0.00 10 1008.1
20260505215305 13 0.0 0.0 0.00 0.00 0.00 10 1008.0
20260505214302 13 0.0 0.0 0.00 0.00 0.00 10 1007.9
20260505213302 14 0.0 0.0 0.00 0.00 0.00 10 1007.8
20260505212305 14 0.0 0.0 0.00 0.00 0.00 10 1007.8
20260505211302 14 0.0 0.0 0.00 0.00 0.00 10 1007.9
20260505210302 14 0.0 0.0 0.00 0.00 0.00 10 1007.9
20260505205305 14 0.0 0.0 0.00 0.00 0.00 10 1007.9
20260505204302 14 0.0 0.0 0.00 0.00 0.00 10 1008.0
20260505203302 14 0.0 0.0 0.00 0.00 0.00 10 1007.9
20260505202305 14 0.0 0.0 0.00 0.00 0.00 10 1007.8
20260505201302 15 0.0 0.0 0.00 0.00 0.00 10 1007.8
20260505200302 15 0.0 0.0 0.00 0.00 0.00 10 1007.7
20260505195305 15 0.0 0.0 0.00 0.00 0.00 10 1007.8
20260505194304 15 0.0 0.0 0.00 0.00 0.00 10 1007.8
20260505193302 15 0.0 0.0 0.00 0.00 0.00 10 1007.8
20260505192305 15 0.0 0.0 0.00 0.00 0.00 98 1007.9
20260505191302 15 0.0 0.0 0.00 0.00 0.00 97 1007.9
20260505190302 15 0.0 0.0 0.00 0.00 0.00 95 1007.8
20260505185304 15 0.0 0.0 0.00 0.00 0.00 94 1007.6
20260505184302 16 0.0 0.0 0.00 0.00 0.00 92 1007.6
20260505183302 16 0.0 0.0 0.00 0.00 0.00 90 1007.5
20260505182305 16 0.0 0.0 0.00 0.00 0.00 90 1007.4
20260505181302 16 0.0 0.0 0.00 0.00 0.00 88 1007.3
20260505180302 16 0.0 0.0 0.00 0.00 0.00 86 1007.4